Location: Driftpile
(55.3500°N, 115.7667°W)
Time: 04:36:20
(UTC+00:00)

ISS - Pass Details

Date: 07 December 2021
Orbit: 413 x 423 km, 51.6° (Epoch: 20 January)

Event Time Altitude Azimuth Distance (km) Brightness Sun altitude
Rises 00:38:07 0° 274° (W) 2,385 1.3 -10.9°
Reaches altitude 10° 00:40:31 10° 259° (W) 1,515 0.5 -11.2°
Maximum altitude 00:43:13 22° 207° (SSW) 981 -1.2 -11.5°
Drops below altitude 10° 00:45:54 10° 154° (SSE) 1,506 -1.0 -11.9°
Sets 00:48:21 0° 138° (SE) 2,396 -0.1 -12.2°
